Location: ???? ?????????
(44.3677°N, 135.2344°E)
Time: 06:31:50
(UTC+00:00)

Cosmos 1151 Rocket - Pass Details

Date: 19 May 2025
Orbit: 586 x 606 km, 82.5° (Epoch: 23 June)

Event Time Altitude Azimuth Distance (km) Brightness Sun altitude
Exits shadow 14:16:15 40° 64° (ENE) 876 3.9 -25.1°
Drops below altitude 10° 14:19:33 10° 21° (NNE) 1,920 6.3 -25.2°
Sets 14:21:49 0° 15° (NNE) 2,825 7.5 -25.3°
